TimeEDT,TemperatureF,Dew PointF,Humidity,Sea Level PressureIn,VisibilityMPH,Wind Direction,Wind SpeedMPH,Gust SpeedMPH,PrecipitationIn,Events,Conditions,WindDirDegrees,DateUTC
12:53 AM,71.6,64.4,78,30.00,10.0,ESE,9.2,-,N/A,,Clear,110,2013-05-01 04:53:00
1:53 AM,71.1,64.0,78,30.00,10.0,ESE,8.1,-,N/A,,Clear,120,2013-05-01 05:53:00
2:53 AM,70.0,64.0,81,29.99,10.0,East,9.2,-,N/A,,Clear,100,2013-05-01 06:53:00
3:53 AM,70.0,61.0,73,29.96,10.0,East,10.4,-,N/A,,Clear,90,2013-05-01 07:53:00
4:53 AM,69.1,61.0,75,29.96,10.0,East,9.2,-,N/A,,Clear,80,2013-05-01 08:53:00
5:53 AM,68.0,62.1,81,29.98,10.0,East,8.1,-,N/A,,Clear,80,2013-05-01 09:53:00
6:53 AM,68.0,60.1,76,29.99,10.0,East,8.1,-,N/A,,Clear,80,2013-05-01 10:53:00
7:53 AM,68.0,61.0,78,30.00,10.0,ENE,11.5,-,N/A,,Partly Cloudy,70,2013-05-01 11:53:00
8:53 AM,68.0,61.0,78,30.02,10.0,ENE,13.8,-,N/A,,Partly Cloudy,70,2013-05-01 12:53:00
9:53 AM,66.9,61.0,81,30.01,10.0,East,11.5,23.0,0.00,,Mostly Cloudy,80,2013-05-01 13:53:00
10:53 AM,68.0,61.0,78,30.04,10.0,East,10.4,18.4,N/A,,Overcast,80,2013-05-01 14:53:00
11:21 AM,69.8,62.6,78,30.06,10.0,East,10.4,-,N/A,,Overcast,100,2013-05-01 15:21:00
11:53 AM,70.0,62.1,76,30.06,10.0,East,11.5,-,N/A,,Overcast,80,2013-05-01 15:53:00
12:10 PM,69.8,62.6,78,30.05,10.0,East,8.1,-,N/A,,Overcast,80,2013-05-01 16:10:00
12:35 PM,71.6,62.6,73,30.05,10.0,East,8.1,-,N/A,,Overcast,80,2013-05-01 16:35:00
12:53 PM,72.0,62.1,71,30.05,10.0,East,11.5,-,0.00,Rain,Light Rain,90,2013-05-01 16:53:00
1:53 PM,72.0,62.1,71,30.04,10.0,East,13.8,-,0.00,,Overcast,90,2013-05-01 17:53:00
2:23 PM,71.6,62.6,73,30.04,10.0,East,12.7,21.9,N/A,,Overcast,80,2013-05-01 18:23:00
2:53 PM,72.0,63.0,73,30.03,10.0,ENE,10.4,-,0.00,Rain,Light Rain,60,2013-05-01 18:53:00
3:53 PM,71.1,64.9,81,30.02,7.0,ENE,8.1,-,0.01,Rain,Light Rain,70,2013-05-01 19:53:00
4:53 PM,70.0,66.0,87,30.01,4.0,ENE,8.1,-,0.06,Rain,Rain,60,2013-05-01 20:53:00
5:53 PM,72.0,66.9,84,29.99,10.0,ENE,9.2,-,0.03,,Overcast,60,2013-05-01 21:53:00
6:53 PM,72.0,64.9,78,29.99,10.0,ENE,8.1,-,N/A,,Overcast,60,2013-05-01 22:53:00
7:53 PM,71.1,64.9,81,30.01,10.0,ENE,4.6,-,0.00,Rain,Light Rain,70,2013-05-01 23:53:00
8:53 PM,70.0,66.0,87,30.02,10.0,ENE,8.1,-,0.02,Rain,Light Rain,70,2013-05-02 00:53:00
9:53 PM,69.1,64.0,84,30.03,10.0,East,12.7,-,0.00,,Overcast,80,2013-05-02 01:53:00
10:53 PM,68.0,62.1,81,30.04,10.0,East,10.4,-,N/A,,Mostly Cloudy,80,2013-05-02 02:53:00
11:53 PM,66.9,60.1,79,30.04,10.0,East,16.1,27.6,N/A,,Mostly Cloudy,80,2013-05-02 03:53:00